Weather History for Winfield, KS

Change the Weather History Date:

Thursday, February 7, 2013

  Actual Average Record
Temperature  
Mean Temperature 44 °F -  
Max Temperature 54 °F 45 °F 71 °F (2009)
Min Temperature 32 °F 26 °F 7 °F (2003)
Degree Days  
Heating Degree Days 21    
Moisture  
Dew Point 46 °F    
Average Humidity 88    
Maximum Humidity 100    
Minimum Humidity 52    
Precipitation  
Precipitation 0.10 in - - ()
Sea Level Pressure  
Sea Level Pressure 29.95 in    
Wind  
Wind Speed 10 mph (North)    
Max Wind Speed 18 mph    
Max Gust Speed 30 mph    
Visibility 7 miles    
Events Rain    
Averages and records for this station are not official NWS values.
T = Trace of Precipitation, MM = Missing Value Source: NWS Daily Summary

Daily Weather History Graph

Daily Weather History Graph

Search for Another Location

Airport:

Trip Planner

Search our weather history database for the weather conditions in past years. The results will help you decide how hot, cold, wet, or windy it might be!

Date:

Astronomy

Feb. 07, 2013 Rise Set
Actual Time 7:25 AM CST 5:59 PM CST
Civil Twilight 6:58 AM CST 6:26 PM CST
Nautical Twilight 6:27 AM CST 6:57 PM CST
Astronomical Twilight 5:57 AM CST 7:28 PM CST
Moon 5:03 AM CST (2/7) 3:27 PM CST (2/7)
Length of Visible Light 11h 28m
Length of Day
10h 34m
Waning Crescent, 9% of the Moon is Illuminated
Feb 7
Waning Crescent
Feb 10
New
Feb 17
First Quarter
Feb 25
Full
Mar 4
Last Quarter

Hourly Weather History & Observations

Time (CST) Temp. Windchill Dew Point Humidity Pressure Visibility Wind Dir Wind Speed Gust Speed Precip Events Conditions
12:43 AM 53.6 °F - 48.2 °F 82% 29.87 in 10.0 mi SSE 9.2 mph - N/A   Overcast
12:54 AM 53.1 °F - 48.9 °F 86% 29.86 in 10.0 mi South 11.5 mph - N/A   Overcast
1:54 AM 54.0 °F - 50.0 °F 86% 29.84 in 10.0 mi South 15.0 mph 24.2 mph N/A   Overcast
2:34 AM 53.6 °F - 50.0 °F 88% 29.85 in 9.0 mi South 16.1 mph - N/A   Overcast
2:54 AM 53.1 °F - 51.1 °F 93% 29.83 in 7.0 mi South 12.7 mph - N/A   Overcast
3:38 AM 51.8 °F - 51.8 °F 100% 29.84 in 2.5 mi South 9.2 mph - N/A   Overcast
3:54 AM 52.0 °F - 52.0 °F 100% 29.82 in 3.0 mi SSE 9.2 mph - N/A   Overcast
4:54 AM 53.1 °F - 52.0 °F 96% 29.83 in 5.0 mi South 6.9 mph - N/A   Overcast
5:39 AM 53.6 °F - 53.6 °F 100% 29.86 in 2.0 mi Calm Calm - 0.02 in Rain Light Rain
5:54 AM 52.0 °F - 52.0 °F 100% 29.86 in 2.5 mi Calm Calm - 0.04 in Rain Light Rain
6:54 AM 52.0 °F - 52.0 °F 100% 29.85 in 2.5 mi SSE 3.5 mph - 0.02 in   Overcast
7:04 AM 51.8 °F - 51.8 °F 100% 29.85 in 2.5 mi SSE 6.9 mph - N/A   Overcast
7:22 AM 51.8 °F - 51.8 °F 100% 29.84 in 1.2 mi SSE 9.2 mph - N/A   Overcast
7:31 AM 51.8 °F - 51.8 °F 100% 29.85 in 1.2 mi SSE 6.9 mph - N/A   Overcast
7:39 AM 51.8 °F - 51.8 °F 100% 29.85 in 3.0 mi South 5.8 mph - N/A   Overcast
7:54 AM 52.0 °F - 52.0 °F 100% 29.86 in 2.5 mi Calm Calm - N/A   Overcast
8:11 AM 51.8 °F - 51.8 °F 100% 29.90 in 5.0 mi North 17.3 mph 21.9 mph N/A   Overcast
8:23 AM 51.8 °F - 51.8 °F 100% 29.90 in 5.0 mi North 10.4 mph - 0.00 in Rain Light Rain
8:54 AM 52.0 °F - 51.1 °F 97% 29.91 in 7.0 mi NNE 11.5 mph - 0.00 in   Overcast
9:41 AM 51.8 °F - 50.0 °F 94% 29.94 in 10.0 mi NNE 11.5 mph - N/A   Overcast
9:51 AM 51.8 °F - 48.2 °F 88% 29.94 in 10.0 mi NNE 9.2 mph - N/A   Overcast
9:54 AM 51.1 °F - 48.9 °F 92% 29.94 in 10.0 mi NNE 9.2 mph - N/A   Overcast
10:54 AM 52.0 °F - 48.9 °F 89% 29.98 in 10.0 mi North 16.1 mph - 0.01 in Rain Light Rain
11:47 AM 51.8 °F - 50.0 °F 94% 29.98 in 10.0 mi North 17.3 mph 24.2 mph 0.00 in   Overcast
11:54 AM 52.0 °F - 48.9 °F 89% 29.98 in 9.0 mi North 16.1 mph 24.2 mph 0.00 in   Overcast
12:20 PM 50.0 °F - 48.2 °F 94% 29.98 in 6.0 mi North 17.3 mph - N/A   Mostly Cloudy
12:54 PM 46.9 °F - 45.0 °F 93% 30.01 in 4.0 mi North 12.7 mph - 0.02 in Rain Light Rain
1:15 PM 46.4 °F 41.1 °F 44.6 °F 93% 30.01 in 7.0 mi North 11.5 mph - 0.01 in Rain Light Rain
1:54 PM 48.9 °F - 44.1 °F 83% 30.00 in 10.0 mi North 16.1 mph - 0.01 in   Overcast
2:54 PM 53.1 °F - 41.0 °F 64% 29.99 in 10.0 mi North 18.4 mph 29.9 mph N/A   Clear
3:54 PM 53.1 °F - 39.0 °F 59% 30.01 in 10.0 mi North 17.3 mph - N/A   Mostly Cloudy
4:54 PM 53.1 °F - 36.0 °F 52% 30.04 in 10.0 mi North 18.4 mph 25.3 mph N/A   Clear
5:54 PM 48.9 °F - 36.0 °F 61% 30.07 in 10.0 mi North 10.4 mph 21.9 mph N/A   Clear
6:54 PM 44.1 °F 39.0 °F 35.1 °F 71% 30.10 in 10.0 mi NNW 9.2 mph - N/A   Clear
7:54 PM 37.9 °F 32.1 °F 32.0 °F 79% 30.13 in 10.0 mi NNW 8.1 mph - N/A   Clear
8:54 PM 42.1 °F 35.2 °F 32.0 °F 67% 30.15 in 10.0 mi North 12.7 mph - N/A   Clear
9:54 PM 37.0 °F 32.4 °F 30.0 °F 76% 30.19 in 10.0 mi NNW 5.8 mph - N/A   Clear
10:54 PM 34.0 °F 27.2 °F 28.9 °F 82% 30.21 in 10.0 mi NW 8.1 mph - N/A   Clear
11:54 PM 32.0 °F 24.2 °F 28.0 °F 85% 30.22 in 10.0 mi NNW 9.2 mph - N/A   Clear